This is the latest recevied weather packets stored in our database for station/object WX6HNX-4. If no packets are shown the sender has not sent any weather packets the latest 1 day(s).
| Time | Temp. | Humidity | Pressure | Rain* | Wind** | Luminosity | Snow |
|---|---|---|---|---|---|---|---|
| 1777968955 | 12.22° C | 85% | 1005 hPa | 0 mm | 1.79 m/s, 122° | - | - |
| 1777968055 | 12.22° C | 85% | 1005 hPa | 0 mm | 2.24 m/s, 151° | - | - |
| 1777967756 | 12.22° C | 84% | 1005 hPa | 0 mm | 1.79 m/s, 172° | - | - |
| 1777966855 | 12.22° C | 86% | 1004.9 hPa | 0 mm | 1.34 m/s, 186° | - | - |
| 1777966555 | 12.22° C | 86% | 1004.9 hPa | 0 mm | 0.89 m/s, 191° | - | - |
| 1777966255 | 12.22° C | 85% | 1004.9 hPa | 0 mm | 1.34 m/s, 143° | - | - |
| 1777965654 | 12.22° C | 86% | 1004.8 hPa | 0 mm | 2.24 m/s, 136° | - | - |
| 1777965054 | 12.22° C | 85% | 1004.8 hPa | 0 mm | 2.24 m/s, 129° | - | - |
| 1777964154 | 12.22° C | 85% | 1004.7 hPa | 0 mm | 3.58 m/s, 138° | - | - |
| 1777963254 | 12.22° C | 85% | 1004.7 hPa | 0 mm | 2.68 m/s, 128° | - | - |
| 1777962954 | 12.22° C | 85% | 1004.7 hPa | 0 mm | 2.24 m/s, 118° | - | - |
| 1777962354 | 12.22° C | 84% | 1004.7 hPa | 0 mm | 3.58 m/s, 138° | - | - |
| 1777961452 | 12.78° C | 82% | 1004.6 hPa | 0 mm | 3.58 m/s, 143° | - | - |
| 1777961152 | 12.78° C | 81% | 1004.6 hPa | 0 mm | 3.58 m/s, 141° | - | - |
| 1777960551 | 12.78° C | 81% | 1004.7 hPa | 0 mm | 3.13 m/s, 148° | - | - |
| 1777959951 | 12.78° C | 79% | 1004.7 hPa | 0 mm | 2.24 m/s, 173° | - | - |
| 1777958925 | 13.33° C | 75% | 1004.7 hPa | 0 mm | 3.13 m/s, 157° | - | - |
| 1777958625 | 13.89° C | 73% | 1004.8 hPa | 0 mm | 3.13 m/s, 163° | - | - |
| 1777958326 | 13.89° C | 75% | 1004.7 hPa | 0 mm | 1.79 m/s, 172° | - | - |
| 1777957725 | 13.89° C | 75% | 1004.8 hPa | 0 mm | 2.68 m/s, 162° | - | - |
| 1777957165 | 13.89° C | 74% | 1004.8 hPa | 0 mm | 1.79 m/s, 174° | - | - |
| 1777956565 | 13.33° C | 80% | 1004.7 hPa | 0 mm | 2.68 m/s, 168° | - | - |
| 1777955965 | 13.33° C | 79% | 1004.7 hPa | 0 mm | 3.13 m/s, 170° | - | - |
| 1777955666 | 13.33° C | 77% | 1004.6 hPa | 0 mm | 3.13 m/s, 163° | - | - |
| 1777955365 | 13.89° C | 74% | 1004.6 hPa | 0 mm | 2.68 m/s, 177° | - | - |
* Rain latest hour (hover to see other rain measurements)
** Current wind speed in m/s (hover to see current wind gust speed)